Change the Weather History Date:

Sunday, March 31, 2013

  Actual Average Record
Temperature  
Mean Temperature 73 °F -  
Max Temperature 79 °F 82 °F - ()
Min Temperature 67 °F 66 °F - ()
Cooling Degree Days 8    
Growing Degree Days 23 (Base 50)    
Moisture  
Dew Point 63 °F    
Average Humidity 68    
Maximum Humidity 83    
Minimum Humidity 46    
Precipitation  
Precipitation 0.00 in 0.07 in - ()
Sea Level Pressure  
Sea Level Pressure 30.15 in    
Wind  
Wind Speed 7 mph ()    
Max Wind Speed 17 mph    
Max Gust Speed -    
Visibility 6.9 miles    
Events      
T = Trace of Precipitation, MM = Missing Value Source: Averaged Metar Reports

Daily Weather History Graph

Daily Weather History Graph

Search for Another Location

Airport or City:

Trip Planner

Search our weather history database for the weather conditions in past years. The results will help you decide how hot, cold, wet, or windy it might be!

Date:

Astronomy

Mar. 31, 2013 Rise Set
Actual Time 7:02 AM EDT 7:25 PM EDT
Civil Twilight 6:39 AM EDT 7:48 PM EDT
Nautical Twilight 6:12 AM EDT 8:15 PM EDT
Astronomical Twilight 5:45 AM EDT 8:42 PM EDT
Moon No Moon Rise 10:13 AM EDT (3/31)
Length of Visible Light 13h 09m
Length of Day
12h 23m
Waning Gibbous, 78% of the Moon is Illuminated
Mar 31
Waning Gibbous
Apr 3
Last Quarter
Apr 10
New
Apr 18
First Quarter
Apr 25
Full

Hourly Weather History & Observations

Time (EDT) Temp. Dew Point Humidity Pressure Visibility Wind Dir Wind Speed Gust Speed Precip Events Conditions
12:00 AM 69.8 °F 60.8 °F 73% 30.21 in 6.2 mi East 4.6 mph - N/A   Partly Cloudy
12:52 AM 69.8 °F 60.8 °F 73% 30.19 in - North - - N/A   Mostly Cloudy
2:00 AM 69 °F 61 °F 69% 30.18 in 9 mi East 3.5 mph - -   Scattered Clouds
2:00 AM 69.8 °F 60.8 °F 73% 30.18 in 6.2 mi East 3.5 mph - N/A   Partly Cloudy
3:00 AM 69.8 °F 60.8 °F 73% 30.17 in 6.2 mi East 4.6 mph - N/A   Partly Cloudy
4:00 AM 69.8 °F 60.8 °F 73% 30.14 in 6.2 mi East 3.5 mph - N/A   Partly Cloudy
5:00 AM 68 °F 62 °F 75% 30.15 in 9 mi East 2.3 mph - -   Partly Cloudy
5:00 AM 68.0 °F 62.6 °F 83% 30.14 in 6.2 mi East 2.3 mph - N/A   Scattered Clouds
6:00 AM 68.0 °F 60.8 °F 78% 30.15 in 6.2 mi East 3.5 mph - N/A   Scattered Clouds
7:00 AM 68.0 °F 60.8 °F 78% 30.15 in 6.2 mi East 3.5 mph - N/A   Partly Cloudy
8:00 AM 70 °F 61 °F 67% 30.19 in 9 mi East 4.6 mph - -   Scattered Clouds
8:00 AM 69.8 °F 60.8 °F 73% 30.18 in 6.2 mi East 4.6 mph - N/A   Partly Cloudy
9:00 AM 73.4 °F 62.6 °F 69% 30.19 in 6.2 mi ESE 8.1 mph - N/A   Partly Cloudy
10:00 AM 73.4 °F 62.6 °F 69% 30.19 in 6.2 mi SE 11.5 mph - N/A   Scattered Clouds
11:00 AM 77 °F 62 °F 50% 30.20 in 9 mi ESE 11.5 mph - -   Partly Cloudy
11:00 AM 77.0 °F 62.6 °F 61% 30.20 in 6.2 mi ESE 11.5 mph - N/A   Scattered Clouds
12:00 PM 75.2 °F 62.6 °F 65% 30.19 in 6.2 mi SE 11.5 mph - N/A   Scattered Clouds
1:00 PM 77.0 °F 64.4 °F 65% 30.17 in 6.2 mi SSE 10.4 mph - N/A   Scattered Clouds
2:00 PM 79 °F 62 °F 46% 30.16 in 9 mi SE 11.5 mph - -   Partly Cloudy
2:00 PM 78.8 °F 62.6 °F 57% 30.15 in 6.2 mi SE 11.5 mph - N/A   Scattered Clouds
3:00 PM 77.0 °F 64.4 °F 65% 30.14 in 6.2 mi SE 11.5 mph - N/A   Scattered Clouds
4:00 PM 77.0 °F 62.6 °F 61% 30.13 in 6.2 mi SE 13.8 mph - N/A   Partly Cloudy
5:00 PM 77 °F 63 °F 52% 30.12 in 9 mi SE 13.8 mph - -   Scattered Clouds
5:00 PM 77.0 °F 62.6 °F 61% 30.11 in 6.2 mi SE 13.8 mph - N/A   Partly Cloudy
6:00 PM 75.2 °F 64.4 °F 69% 30.11 in 6.2 mi SE 13.8 mph - N/A   Partly Cloudy
7:00 PM 75.2 °F 64.4 °F 69% 30.10 in 6.2 mi SE 11.5 mph - N/A   Partly Cloudy
8:00 PM 74 °F 64 °F 63% 30.11 in 9 mi SSE 17.3 mph - -  
8:00 PM 75.2 °F 64.4 °F 69% 30.10 in 6.2 mi SSE 17.3 mph - N/A   Partly Cloudy
9:00 PM 73.4 °F 64.4 °F 73% 30.10 in 6.2 mi SSE 10.4 mph - N/A   Partly Cloudy
10:00 PM 73.4 °F 64.4 °F 73% 30.11 in 6.2 mi SE 9.2 mph - N/A   Partly Cloudy
11:00 PM 74 °F 65 °F 66% 30.13 in 9 mi SSE 9.2 mph - -   Partly Cloudy
11:00 PM 73.4 °F 64.4 °F 73% 30.13 in 6.2 mi SSE 9.2 mph - N/A   Scattered Clouds